Location: Cazarilh
(42.9578°N, 0.5819°E)
Time: 16:31:41
(UTC+00:00)

Okean 3 - Pass Details

Date: 11 December 2019
Orbit: 577 x 600 km, 82.5° (Epoch: 24 January)

Event Time Altitude Azimuth Distance (km) Brightness Sun altitude
Exits shadow 06:08:53 - 346° (NNW) 2,580 6.4 -12.3°
Reaches altitude 10° 06:10:33 10° 343° (NNW) 1,904 5.7 -12.0°
Maximum altitude 06:14:40 56° 265° (W) 696 3.5 -11.3°
Drops below altitude 10° 06:18:45 10° 188° (S) 1,899 6.2 -10.6°
Sets 06:20:58 0° 184° (S) 2,798 7.2 -10.2°
